When you browse on this site, cookies collect data to enhance your experience and personalize the content and advertising you see.
Visit our Privacy Policy to learn more. By continuing to use the site, you agree to this use of cookies and data.
  • In Hungary
  • List of Countries
  • For 7 days
  • Water Temperature
  • Weather Map
  • News
  • Weather Widgets
  • user-avatar
    Login

    Hourly Weather Groningen

    Today, 22 November, Friday

    Time Temperature Precipitation Wind Pressure Humidity
    00:00 +25°C° 0 mm 2 mps 755 mmHg 97%
    01:00 +25°C° 0 mm 2 mps 755 mmHg 98%
    02:00 +25°C° 0 mm 1 mps 754 mmHg 98%
    03:00 +25°C° 0.3 mm 1 mps 754 mmHg 98%
    04:00 +25°C° 0.3 mm 1 mps 755 mmHg 98%
    05:00 +25°C° 0.3 mm 1 mps 755 mmHg 98%
    06:00 +26°C° 0.3 mm 1 mps 755 mmHg 91%
    07:00 +28°C° 0.3 mm 1 mps 756 mmHg 83%
    08:00 +30°C° 0 mm 1 mps 757 mmHg 74%
    09:00 +32°C° 0 mm 1 mps 756 mmHg 63%
    10:00 +35°C° 0 mm 1 mps 756 mmHg 52%
    11:00 +37°C° 0 mm 1 mps 756 mmHg 42%
    12:00 +38°C° 0 mm 2 mps 755 mmHg 42%
    13:00 +38°C° 0 mm 2 mps 755 mmHg 43%
    14:00 +37°C° 0 mm 3 mps 754 mmHg 44%
    15:00 +35°C° 0.5 mm 3 mps 754 mmHg 59%
    16:00 +31°C° 0.5 mm 2 mps 754 mmHg 74%
    17:00 +28°C° 0.5 mm 2 mps 754 mmHg 89%
    18:00 +27°C° 0.2 mm 2 mps 754 mmHg 92%
    19:00 +27°C° 0.2 mm 2 mps 755 mmHg 94%
    20:00 +26°C° 0.2 mm 2 mps 755 mmHg 97%
    21:00 +26°C° 0.1 mm 2 mps 755 mmHg 97%
    22:00 +26°C° 0.1 mm 1 mps 756 mmHg 97%
    23:00 +26°C° 0.1 mm 1 mps 756 mmHg 97%

    Tomorrow, 23 November, Saturday

    Time Temperature Precipitation Wind Pressure Humidity
    00:00 +26°C° 0.4 mm 1 mps 755 mmHg 98%
    01:00 +26°C° 0.4 mm 1 mps 755 mmHg 98%
    02:00 +26°C° 0.4 mm 1 mps 755 mmHg 98%
    03:00 +25°C° 1.4 mm 1 mps 755 mmHg 98%
    04:00 +25°C° 1.4 mm 1 mps 755 mmHg 98%
    05:00 +25°C° 1.4 mm 2 mps 755 mmHg 98%
    06:00 +26°C° 0.4 mm 2 mps 756 mmHg 95%
    07:00 +27°C° 0.4 mm 2 mps 756 mmHg 92%
    08:00 +28°C° 0.4 mm 2 mps 757 mmHg 89%
    09:00 +30°C° 0.1 mm 2 mps 757 mmHg 77%
    10:00 +32°C° 0.1 mm 2 mps 757 mmHg 64%
    11:00 +36°C° 0.1 mm 2 mps 756 mmHg 51%
    12:00 +35°C° 0.4 mm 2 mps 756 mmHg 58%
    13:00 +34°C° 0.4 mm 3 mps 755 mmHg 65%
    14:00 +33°C° 0.4 mm 3 mps 754 mmHg 72%
    15:00 +31°C° 0.1 mm 3 mps 754 mmHg 73%
    16:00 +30°C° 0.1 mm 3 mps 754 mmHg 75%
    17:00 +29°C° 0.1 mm 3 mps 754 mmHg 76%
    18:00 +28°C° 0.1 mm 3 mps 755 mmHg 81%
    19:00 +28°C° 0.1 mm 3 mps 755 mmHg 86%
    20:00 +27°C° 0.1 mm 3 mps 756 mmHg 91%
    21:00 +26°C° 0.3 mm 3 mps 756 mmHg 93%
    22:00 +26°C° 0.3 mm 3 mps 756 mmHg 95%
    23:00 +26°C° 0.3 mm 3 mps 756 mmHg 97%

    Day after tomorrow, 24 November, Sunday

    Time Temperature Precipitation Wind Pressure Humidity
    00:00 +26°C° 0.4 mm 3 mps 756 mmHg 97%
    01:00 +26°C° 0.4 mm 3 mps 755 mmHg 98%
    02:00 +26°C° 0.4 mm 3 mps 755 mmHg 99%
    03:00 +25°C° 0.1 mm 2 mps 755 mmHg 99%
    04:00 +25°C° 0.1 mm 2 mps 755 mmHg 99%
    05:00 +25°C° 0.1 mm 2 mps 755 mmHg 99%
    06:00 +26°C° 0 mm 2 mps 755 mmHg 96%
    07:00 +27°C° 0 mm 2 mps 756 mmHg 92%
    08:00 +28°C° 0 mm 2 mps 757 mmHg 88%
    09:00 +31°C° 0 mm 2 mps 756 mmHg 74%
    10:00 +34°C° 0 mm 3 mps 756 mmHg 60%
    11:00 +37°C° 0 mm 3 mps 756 mmHg 46%
    12:00 +36°C° 0.4 mm 3 mps 755 mmHg 53%
    13:00 +35°C° 0.4 mm 3 mps 754 mmHg 60%
    14:00 +34°C° 0.4 mm 4 mps 754 mmHg 67%
    15:00 +32°C° 0.6 mm 4 mps 754 mmHg 72%
    16:00 +30°C° 0.6 mm 4 mps 754 mmHg 76%
    17:00 +29°C° 0.6 mm 4 mps 754 mmHg 81%
    18:00 +28°C° 0.2 mm 3 mps 754 mmHg 83%
    19:00 +28°C° 0.2 mm 3 mps 755 mmHg 85%
    20:00 +27°C° 0.2 mm 3 mps 755 mmHg 88%
    21:00 +27°C° 0 mm 3 mps 755 mmHg 89%
    22:00 +27°C° 0 mm 3 mps 755 mmHg 90%
    23:00 +27°C° 0 mm 3 mps 755 mmHg 92%

    25 November, Monday

    Time Temperature Precipitation Wind Pressure Humidity
    00:00 +26°C° 0.4 mm 3 mps 755 mmHg 93%
    01:00 +26°C° 0.4 mm 3 mps 755 mmHg 95%
    02:00 +26°C° 0.4 mm 2 mps 754 mmHg 96%
    03:00 +25°C° 0.6 mm 3 mps 754 mmHg 96%
    04:00 +25°C° 0.6 mm 3 mps 754 mmHg 97%
    05:00 +25°C° 0.6 mm 3 mps 754 mmHg 97%
    06:00 +27°C° 0.5 mm 3 mps 755 mmHg 90%
    07:00 +28°C° 0.5 mm 4 mps 755 mmHg 84%
    08:00 +29°C° 0.5 mm 4 mps 756 mmHg 77%
    09:00 +30°C° 0 mm 4 mps 756 mmHg 73%
    10:00 +31°C° 0 mm 3 mps 756 mmHg 70%
    11:00 +31°C° 0 mm 3 mps 756 mmHg 66%
    12:00 +33°C° 0.3 mm 3 mps 755 mmHg 66%
    13:00 +33°C° 0.3 mm 3 mps 754 mmHg 66%
    14:00 +34°C° 0.3 mm 4 mps 753 mmHg 66%
    15:00 +30°C° 2.4 mm 4 mps 753 mmHg 77%
    16:00 +28°C° 2.4 mm 4 mps 754 mmHg 87%
    17:00 +26°C° 2.4 mm 4 mps 754 mmHg 97%
    18:00 +26°C° 0.1 mm 4 mps 754 mmHg 97%
    19:00 +26°C° 0.1 mm 4 mps 755 mmHg 96%
    20:00 +26°C° 0.1 mm 4 mps 755 mmHg 96%
    21:00 +26°C° 0 mm 4 mps 755 mmHg 96%
    22:00 +26°C° 0 mm 4 mps 755 mmHg 95%
    23:00 +26°C° 0 mm 4 mps 755 mmHg 95%

    26 November, Tuesday

    Time Temperature Precipitation Wind Pressure Humidity
    00:00 +26°C° 0 mm 4 mps 755 mmHg 96%
    01:00 +26°C° 0 mm 3 mps 754 mmHg 97%
    02:00 +25°C° 0 mm 3 mps 754 mmHg 98%
    03:00 +25°C° 0 mm 3 mps 754 mmHg 98%
    04:00 +25°C° 0 mm 3 mps 754 mmHg 98%
    05:00 +25°C° 0 mm 3 mps 755 mmHg 98%
    06:00 +27°C° 0 mm 3 mps 755 mmHg 91%
    07:00 +28°C° 0 mm 3 mps 756 mmHg 83%
    08:00 +30°C° 0 mm 3 mps 756 mmHg 76%
    09:00 +30°C° 0.5 mm 3 mps 756 mmHg 77%
    10:00 +31°C° 0.5 mm 3 mps 756 mmHg 78%
    11:00 +31°C° 0.5 mm 3 mps 756 mmHg 79%
    12:00 +31°C° 1.5 mm 3 mps 755 mmHg 83%
    13:00 +30°C° 1.5 mm 3 mps 755 mmHg 86%
    14:00 +30°C° 1.5 mm 3 mps 754 mmHg 89%
    15:00 +29°C° 1.2 mm 3 mps 754 mmHg 91%
    16:00 +29°C° 1.2 mm 3 mps 754 mmHg 92%
    17:00 +28°C° 1.2 mm 3 mps 754 mmHg 94%
    18:00 +27°C° 0.3 mm 3 mps 755 mmHg 95%
    19:00 +27°C° 0.3 mm 3 mps 755 mmHg 96%
    20:00 +26°C° 0.3 mm 3 mps 756 mmHg 97%
    21:00 +26°C° 0.2 mm 3 mps 756 mmHg 97%
    22:00 +26°C° 0.2 mm 3 mps 756 mmHg 98%
    23:00 +26°C° 0.2 mm 3 mps 756 mmHg 98%

    27 November, Wednesday

    Time Temperature Precipitation Wind Pressure Humidity
    00:00 +26°C° 0.1 mm 3 mps 755 mmHg 98%
    01:00 +25°C° 0.1 mm 3 mps 755 mmHg 98%
    02:00 +25°C° 0.1 mm 3 mps 754 mmHg 99%
    03:00 +25°C° 0.3 mm 3 mps 755 mmHg 99%
    04:00 +25°C° 0.3 mm 2 mps 755 mmHg 99%
    05:00 +25°C° 0.3 mm 2 mps 755 mmHg 99%
    06:00 +26°C° 0.8 mm 3 mps 756 mmHg 97%
    07:00 +27°C° 0.8 mm 3 mps 756 mmHg 96%
    08:00 +28°C° 0.8 mm 3 mps 757 mmHg 94%
    09:00 +28°C° 1.1 mm 3 mps 757 mmHg 93%
    10:00 +29°C° 1.1 mm 3 mps 757 mmHg 92%
    11:00 +29°C° 1.1 mm 3 mps 757 mmHg 91%
    12:00 +29°C° 0.9 mm 3 mps 756 mmHg 89%
    13:00 +30°C° 0.9 mm 3 mps 755 mmHg 87%
    14:00 +30°C° 0.9 mm 3 mps 755 mmHg 84%
    15:00 +29°C° 0.5 mm 3 mps 755 mmHg 87%
    16:00 +29°C° 0.5 mm 3 mps 755 mmHg 89%
    17:00 +28°C° 0.5 mm 3 mps 755 mmHg 92%
    18:00 +27°C° 0 mm 3 mps 755 mmHg 93%
    19:00 +27°C° 0 mm 3 mps 756 mmHg 95%
    20:00 +26°C° 0 mm 3 mps 756 mmHg 96%
    21:00 +26°C° 0.1 mm 3 mps 756 mmHg 97%
    22:00 +26°C° 0.1 mm 3 mps 756 mmHg 98%
    23:00 +25°C° 0.1 mm 2 mps 756 mmHg 98%
    Show more